Regional Weather Roundup
Issued by NWS Newport/Morehead, NC

Current Version | Previous Version | Text Only | Print | Product List | Glossary Off
Versions: 1 2 3 4 5 6 7 8 9 10 11 12 13 14 15 16 17 18 19 20 21 22 23 24 25 26 27 28 29 30 31 32 33 34 35 36 37 38 39 40 41 42 43 44 45 46 47 48 49 50
000 ASUS42 KMHX 281922 RWRMHX WEATHER ROUNDUP FOR EASTERN NORTH CAROLINA NATIONAL WEATHER SERVICE NEWPORT/MOREHEAD CITY NC 200 PM EST SUN DEC 28 2014 NOTE: "FAIR" INDICATES FEW OR NO CLOUDS BELOW 12,000 FEET WITH NO SIGNIFICANT WEATHER AND/OR OBSTRUCTIONS TO VISIBILITY NCZ015>017-031-032-045>047-102-103-282000- NORTH COAST CITY SKY/WX TMP DP RH WIND PRES REMARKS EDENTON CLOUDY 65 55 69 W9 30.00F ELIZABETH CITY PTSUNNY 69 55 60 SW10 29.99F KITTY HAWK CLOUDY 63 56 80 W5 30.00S MANTEO CLOUDY 63 55 77 W8 30.02S $$ NCZ045>047-081-094-103-104-282000- CENTRAL COAST CITY SKY/WX TMP DP RH WIND PRES REMARKS FRISCO CLOUDY 62 58 86 W7 30.02F SWANQUARTER N/A 68 N/A N/A SW3 29.97S $$ NCZ095-097-098-100-101-282000- SOUTHERN COAST CITY SKY/WX TMP DP RH WIND PRES REMARKS BEAUFORT CLOUDY 66 58 75 SW10 30.03F CEDAR ISLAND N/A 70 N/A N/A SW15 30.03F JACKSONVILLE MOSUNNY 73 58 59 SW10 30.01F PINEY ISLAND CLEAR 74 58 57 SW17G24 30.01F WILMINGTON MOSUNNY 74 60 61 SW17G26 30.01F $$ NCZ011>013-027>030-043-044-078>080-089-090>093-098-282000- COASTAL PLAIN CITY SKY/WX TMP DP RH WIND PRES REMARKS AHOSKIE CLOUDY 64 55 73 CALM 29.99F CLINTON CLOUDY 67 60 78 SW5 30.01F ELIZABETHTOWN PTSUNNY 71 58 64 SW3 29.99F GOLDSBORO PTSUNNY 64 63 97 SW8 30.00F GREENVILLE CLOUDY 64 59 82 W8 30.03S HAVELOCK MOSUNNY 73 57 57 SW9 30.02F KENANSVILLE PTSUNNY 69 57 65 SW13 30.01F KINSTON PTSUNNY 64 57 77 W7 30.03S NEW BERN MOSUNNY 75 57 53 W10G21 30.02F RICHLANDS PTSUNNY 73 57 56 W10 30.01F ROCKY MOUNT CLOUDY 62 56 80 SW9 30.01F WASHINGTON CLOUDY 65 56 72 W9 30.02S WHITEVILLE MOSUNNY 74 59 59 SW12G17 30.01F $$ AMZ130-135-150-152-154-156-158-170-250-252-270-ANZ085-086-088-633-658-670-282000- MARINE OBSERVATIONS STATION/POSITION TIME TEMP WIND PRES WAVE SWELL AIR SEA DIR/SP/G HT/PER HT/PER (UTC) (F) (DEG/KT/KT) (MB) (FT/S) (FT/S) CHESAPEAKE LIGHT 1900 59 250/ 15/ 16 1014.9 64 E VA BEACH 1900 55 53 220/ 10/ 12 1015.0 3/13 2/13 DUCK 1900 61 49 230/ 12/ 16 1015.0 2 E DUCK 1900 48 N/A 2/14 2/14 10 NE DUCK 1900 51 N/A 2/13 2/13 OREGON INLET 1900 57 53 230/ 8/ 11 1016.3 13E OREGON INLT 1900 55 N/A 3/13 2/13 HATTERAS CG 1900 62 54 250/ 5/ 8 1016.9 DIAMOND BUOY 1900 70 1016.6 5/14 17 S OCRACOKE NOT AVBL CAPE LOOKOUT 1900 65 250/ 7/ 9 1016.9 BEAUFORT LAB 1900 64 55 220/ 5/ 10 1015.9 30 SE NEW RIVER 1900 63 61 230/ 12/ 12 1017.4 2/14 2/14 5 SE WRIGHTSVLE NOT AVBL 225 S CAPE HAT 1850 74 75 220/ 17/ 21 1019.6 5/15 3/15 41 SE CHARLESTON 1900 73 74 220/ 12/ 14 1017.2 3/14 2/14 $$

USA.gov is the U.S. government's official web portal to all federal, state and local government web resources and services.